ONEWEB-0173

Last updated on April 25, 2021, 12:02 a.m. UTC

1 48069U 21025AD  21114.58336806 -.01059091  00000-0 -43196-1 0  9996
2 48069  87.4225 339.3298 0007558 141.3938 156.8827 15.27313366  1766
UTC
Height (km)
Latitude
Longitude
Inclination
Orbital Period
UTC large
Height (km)
Speed (km/s)
/
Latitude / Longitude
Inclination (degrees)
Orbital Period (minutes)
Azimuth
Elevation
Range (km)
Doppler Factor
iOS Compass Heading
iOS Angle

Next 30 passes for location: Hong Kong

Rise time Rise Azimuth (degrees) Set time Set Azimuth (degrees) Duration Max altitude (degrees)

No matching passes for this satellites